TimeCDT,TemperatureF,Dew PointF,Humidity,Sea Level PressureIn,VisibilityMPH,Wind Direction,Wind SpeedMPH,Gust SpeedMPH,PrecipitationIn,Events,Conditions,WindDirDegrees,DateUTC
12:15 AM,41.2,34.3,77,30.05,10.0,WSW,3.5,-,N/A,,Clear,250,2013-10-07 05:15:00
12:35 AM,41.9,34.7,76,30.05,10.0,Calm,Calm,-,N/A,,Clear,0,2013-10-07 05:35:00
12:55 AM,40.3,34.5,80,30.05,10.0,WNW,4.6,-,N/A,,Clear,290,2013-10-07 05:55:00
1:15 AM,40.1,35.1,82,30.05,10.0,West,4.6,-,N/A,,Clear,280,2013-10-07 06:15:00
1:35 AM,39.0,34.9,85,30.05,10.0,Calm,Calm,-,N/A,,Clear,0,2013-10-07 06:35:00
1:55 AM,41.0,35.6,81,30.05,10.0,West,4.6,-,N/A,,Clear,270,2013-10-07 06:55:00
2:15 AM,38.1,35.1,89,30.05,10.0,Calm,Calm,-,N/A,,Clear,0,2013-10-07 07:15:00
2:55 AM,38.1,35.1,89,30.05,10.0,West,4.6,-,N/A,,Clear,280,2013-10-07 07:55:00
3:15 AM,37.8,35.6,92,30.06,10.0,Calm,Calm,-,N/A,,Clear,0,2013-10-07 08:15:00
3:35 AM,40.1,36.9,88,30.06,10.0,West,3.5,-,N/A,,Clear,280,2013-10-07 08:35:00
3:55 AM,40.5,36.9,87,30.06,10.0,Calm,Calm,-,N/A,,Clear,0,2013-10-07 08:55:00
4:15 AM,40.6,36.7,86,30.06,10.0,Calm,Calm,-,N/A,,Clear,0,2013-10-07 09:15:00
4:35 AM,40.3,36.7,87,30.06,10.0,Calm,Calm,-,N/A,,Clear,0,2013-10-07 09:35:00
4:55 AM,38.7,36.0,90,30.07,10.0,West,3.5,-,N/A,,Clear,260,2013-10-07 09:55:00
5:15 AM,38.1,36.0,92,30.08,10.0,West,5.8,-,N/A,,Clear,270,2013-10-07 10:15:00
5:35 AM,39.2,36.5,90,30.08,10.0,Calm,Calm,-,N/A,,Clear,0,2013-10-07 10:35:00
5:55 AM,39.2,36.0,88,30.09,10.0,Calm,Calm,-,N/A,,Clear,0,2013-10-07 10:55:00
6:15 AM,38.5,35.6,89,30.09,10.0,Calm,Calm,-,N/A,,Clear,0,2013-10-07 11:15:00
6:35 AM,37.9,35.6,91,30.09,10.0,West,3.5,-,N/A,,Clear,270,2013-10-07 11:35:00
6:55 AM,38.7,36.0,90,30.09,10.0,Calm,Calm,-,N/A,,Clear,0,2013-10-07 11:55:00
7:15 AM,38.3,35.6,90,30.09,10.0,Calm,Calm,-,N/A,,Clear,0,2013-10-07 12:15:00
7:35 AM,37.0,35.1,93,30.10,10.0,SW,4.6,-,N/A,,Clear,230,2013-10-07 12:35:00
7:55 AM,39.0,35.8,88,30.10,10.0,SW,3.5,-,N/A,,Clear,220,2013-10-07 12:55:00
8:15 AM,40.1,37.4,90,30.11,10.0,West,3.5,-,N/A,,Clear,260,2013-10-07 13:15:00
8:35 AM,42.3,38.1,85,30.11,10.0,Calm,Calm,-,N/A,,Clear,0,2013-10-07 13:35:00
8:55 AM,44.1,39.0,82,30.12,10.0,WSW,3.5,-,N/A,,Clear,240,2013-10-07 13:55:00
9:15 AM,46.2,40.1,79,30.12,10.0,Calm,Calm,-,N/A,,Clear,0,2013-10-07 14:15:00
9:35 AM,49.3,41.0,73,30.12,10.0,Calm,Calm,-,N/A,,Clear,0,2013-10-07 14:35:00
9:55 AM,52.0,41.5,68,30.12,10.0,Calm,Calm,-,N/A,,Clear,0,2013-10-07 14:55:00
10:15 AM,55.0,42.6,63,30.12,10.0,SW,3.5,-,N/A,,Clear,220,2013-10-07 15:15:00
10:35 AM,58.6,41.9,54,30.12,10.0,SSW,5.8,-,N/A,,Clear,210,2013-10-07 15:35:00
10:55 AM,62.4,41.0,45,30.12,10.0,SW,8.1,-,N/A,,Clear,220,2013-10-07 15:55:00
11:15 AM,64.6,39.2,39,30.12,10.0,SSW,10.4,-,N/A,,Clear,210,2013-10-07 16:15:00
11:35 AM,66.4,36.7,33,30.12,10.0,WSW,11.5,-,N/A,,Clear,240,2013-10-07 16:35:00
11:55 AM,67.3,37.6,34,30.12,10.0,SW,10.4,-,N/A,,Clear,230,2013-10-07 16:55:00
12:15 PM,68.7,38.7,33,30.11,10.0,SW,11.5,18.4,N/A,,Clear,220,2013-10-07 17:15:00
12:35 PM,69.8,39.0,33,30.11,10.0,WSW,11.5,17.3,N/A,,Clear,240,2013-10-07 17:35:00
12:55 PM,70.0,37.6,31,30.10,10.0,WSW,12.7,-,N/A,,Clear,240,2013-10-07 17:55:00
1:15 PM,70.2,37.9,31,30.10,10.0,SW,13.8,-,N/A,,Clear,230,2013-10-07 18:15:00
1:35 PM,70.5,37.9,30,30.09,10.0,SSW,11.5,-,N/A,,Clear,210,2013-10-07 18:35:00
1:55 PM,71.1,37.9,30,30.08,10.0,SW,15.0,23.0,N/A,,Clear,220,2013-10-07 18:55:00
2:15 PM,71.1,37.2,29,30.07,10.0,WSW,11.5,19.6,N/A,,Clear,240,2013-10-07 19:15:00
2:35 PM,71.6,37.6,29,30.07,10.0,SW,13.8,19.6,N/A,,Clear,230,2013-10-07 19:35:00
2:55 PM,72.0,37.8,29,30.06,10.0,WSW,12.7,-,N/A,,Clear,240,2013-10-07 19:55:00
3:15 PM,72.1,36.7,27,30.05,10.0,SW,9.2,20.7,N/A,,Clear,220,2013-10-07 20:15:00
3:35 PM,72.9,38.1,28,30.04,10.0,WSW,10.4,-,N/A,,Clear,240,2013-10-07 20:35:00
3:55 PM,72.7,37.2,27,30.04,10.0,SW,13.8,18.4,N/A,,Clear,230,2013-10-07 20:55:00
4:15 PM,73.0,37.6,28,30.03,10.0,SW,13.8,-,N/A,,Clear,220,2013-10-07 21:15:00
4:35 PM,73.4,37.8,27,30.02,10.0,SSW,12.7,16.1,N/A,,Clear,210,2013-10-07 21:35:00
4:55 PM,73.0,37.4,27,30.02,10.0,SW,11.5,16.1,N/A,,Clear,220,2013-10-07 21:55:00
5:15 PM,73.0,38.5,29,30.02,10.0,SW,12.7,17.3,N/A,,Clear,220,2013-10-07 22:15:00
5:35 PM,72.5,37.8,28,30.02,10.0,SSW,10.4,-,N/A,,Clear,210,2013-10-07 22:35:00
5:55 PM,71.8,38.8,30,30.02,10.0,SSW,9.2,-,N/A,,Clear,210,2013-10-07 22:55:00
6:15 PM,70.7,39.0,32,30.01,10.0,SSW,8.1,-,N/A,,Clear,210,2013-10-07 23:15:00
6:35 PM,67.3,41.0,38,30.01,10.0,South,6.9,-,N/A,,Clear,190,2013-10-07 23:35:00
6:55 PM,64.4,41.4,43,30.01,10.0,South,5.8,-,N/A,,Clear,180,2013-10-07 23:55:00
7:15 PM,63.0,40.8,44,30.01,10.0,South,5.8,-,N/A,,Clear,170,2013-10-08 00:15:00
7:35 PM,62.8,40.3,44,30.01,10.0,South,6.9,-,N/A,,Clear,170,2013-10-08 00:35:00
7:55 PM,61.9,40.3,45,30.02,10.0,South,6.9,-,N/A,,Clear,170,2013-10-08 00:55:00
8:15 PM,61.9,39.9,44,30.02,10.0,SSE,6.9,-,N/A,,Clear,160,2013-10-08 01:15:00
8:35 PM,59.7,40.3,49,30.02,10.0,South,6.9,-,N/A,,Clear,170,2013-10-08 01:35:00
8:55 PM,60.1,40.1,48,30.02,10.0,SSE,8.1,-,N/A,,Clear,160,2013-10-08 01:55:00
9:15 PM,59.2,40.5,50,30.03,10.0,SSE,6.9,-,N/A,,Clear,160,2013-10-08 02:15:00
9:35 PM,57.4,41.2,55,30.03,10.0,South,6.9,-,N/A,,Clear,170,2013-10-08 02:35:00
9:55 PM,56.8,41.4,56,30.03,10.0,SSE,6.9,-,N/A,,Clear,160,2013-10-08 02:55:00
10:15 PM,57.2,41.5,56,30.03,10.0,South,9.2,-,N/A,,Clear,170,2013-10-08 03:15:00
10:35 PM,57.7,41.2,54,30.03,10.0,South,9.2,-,N/A,,Clear,180,2013-10-08 03:35:00
10:55 PM,56.3,41.2,57,30.03,10.0,South,8.1,-,N/A,,Clear,180,2013-10-08 03:55:00
11:15 PM,56.1,41.4,58,30.03,10.0,South,8.1,-,N/A,,Clear,180,2013-10-08 04:15:00
11:35 PM,56.3,41.0,57,30.03,10.0,South,9.2,-,N/A,,Clear,180,2013-10-08 04:35:00
11:55 PM,56.1,41.0,57,30.03,10.0,South,8.1,-,N/A,,Clear,170,2013-10-08 04:55:00